Showing default

HORUS 2, 55844

Orbit data source: Space-Track

HORUS 2, 55844 is a payload satellite owned by EgSA (EG) in SSO that was launched on Mon, 13 Mar 2023 UTC via a CHANG ZHENG 2C launch vehicle from the Jiuquan Satellite Launch Center, China (JSC). Payload-class satellites include a variety of spacecraft equipped with specific instruments for various scientific and technological missions. These include communications satellites like Starlink; space stations such as the ISS; scientific satellites like the Hubble; Earth observation satellites from companies like Planet Labs, Umbra, and HawkEye 360; GPS; miniature CubeSats for education and research; and military/defense satellites.

Loading next visibility...
Identifier
55844, 2023-032A
Orbit
SSO
Country
Flag of UnknownUnknown / EGYP
Related business
Manufacturer
DFH
Mission
Operational Defense Imaging
Bus & Motor
CAST-2000?, Unknown motor
Mass
~330 kg wet, ~330 kg dry
Launch date (UTC)
2023-03-13 (3 years ago)
Launch vehicle
CHANG ZHENG 2C
Launch site
Jiuquan Satellite Launch Center, China (JSC)
Object type
Payload
Rocket body
Debris
Shape & HBR
Box + 2 Pan, 2.0 m
Radar Cross Section
2.815 m², Large (>1 m²)

Expand to show TLE details & history
Last TLE update: 12 hours ago

TLE from 12 hours ago
0 HORUS 2
1 55844U 23032A   25306.51091742  .00008381  00000-0  35305-3 0  9990
2 55844  97.3791  21.1520 0004501 135.4796 224.6803 15.23583686146979
Epoch: 2025-11-02T12:15Z
TLE epoch observation values (Epoch: 2025-11-02T12:15:43.265Z)
Latitude
-0.00004°
Longitude
155.19613°
Altitude
500.338 km
Speed
7.613 km/s
True Right ascension
01h 24m 36s
True Declination
0° 00' 00"
Sunlit
Object was in full shadow at epoch
Visualization orbit readout
Latitude
Unknown
Longitude
Unknown
Altitude
Unknown
Speed
Unknown
Apparent Right ascension
Unknown
Apparent Declination
Unknown
Sunlit
N/A
Visualization observer readout
Local Sidereal Time
20:28:24
Azimuth
Unknown
Elevation
Unknown
Doppler factor
Unknown
Orbital elements
Apogee altitude
495.094 km
Perigee altitude
488.909 km
Semi-major axis
6,870.139 km
Eccentricity
0.00045
Inclination
97.3791°
RAAN
21.152°
Arg. of periapsis
135.4796°
True anomaly
224.64405°
Mean anomaly
224.6803°
Eccentric anomaly
224.66217°
Mean motion
3.81149 °/min
Orbital period
94.45 mins
BSTAR
0.00035305
Loading maneuver chart data...
Computing Atmospheric mass density...
Loading historical data...
Loading historical data...
Loading historical data...
Loading historical data...
Loading historical data...
Loading historical data...
Loading historical data...

Documentation

Showing up to 5 results
|